Regional Weather Roundup
Issued by NWS

Home | Current Version | Previous Version | Graphics & Text | Print | Product List | Glossary On
Versions: 1 2 3 4 5 6 7 8 9 10 11 12 13 14 15 16 17 18 19 20 21 22 23 24 25 26 27 28 29 30 31 32 33 34 35 36 37 38 39 40 41 42 43 44 45 46 47 48 49 50
000
ASUS43 KDMX 252207
RWRIA

WEATHER ROUNDUP FOR IOWA
NATIONAL WEATHER SERVICE DES MOINES IA
400 PM CST TUE NOV 25 2014

NOTE: "FAIR" INDICATES FEW OR NO CLOUDS BELOW 12,000 FEET WITH NO
SIGNIFICANT WEATHER AND/OR OBSTRUCTIONS TO VISIBILITY.

* - THESE STATIONS ARE NOT NWS STATIONS...THUS NOT UNDER NWS
QUALITY CONTROL.  THEY ALSO DO NOT REPORT WEATHER SUCH
AS PRECIPITATION OR FOG.

IAZ001>003-012>014-020>022-031>034-043>046-252300-
   NORTHWEST IOWA

CITY           SKY/WX    TMP DP  RH WIND       PRES   REMARKS
CARROLL *      CLEAR     36  18  48 S12       30.00S WCI  27
CHEROKEE *     MOCLDY    36  19  51 S9        29.95F WCI  29
DENISON *      CLEAR     36  18  48 S9        29.96S WCI  29
LE MARS *      CLEAR     37  21  52 SE12      29.92F WCI  30
ORANGE CITY *  CLEAR     36  19  51 S9        29.92S WCI  29
SHELDON *      CLEAR     34  19  55 SE12      29.92S WCI  25
SIOUX CITY     CLOUDY    41  25  53 S14       29.93F
SPENCER        PTCLDY    34  16  47 SE14      29.96S WCI  25
STORM LAKE *   CLEAR     34  18  51 S10       29.96S WCI  26
$$

IAZ055>058-069>071-079>083-090>094-252300-
   SOUTHWEST IOWA

CITY           SKY/WX    TMP DP  RH WIND       PRES   REMARKS
ATLANTIC *     CLEAR     36  19  51 S7        30.01S WCI  30
AUDUBON *      CLEAR     36  12  38 S10       30.01F WCI  28
CLARINDA *     CLEAR     37  18  44 S9        30.06S WCI  31
COUNCIL BLFS * CLEAR     39  25  56 S12       29.96F WCI  32
CRESTON *      CLEAR     34  14  44 S9        30.04S WCI  26
HARLAN  *      CLEAR     37  19  48 S8        30.02F WCI  31
LAMONI         CLEAR     36  15  42 SW12      30.06F WCI  28
RED OAK *      CLEAR     39  19  45 S9        30.02F WCI  33
SHENANDOAH *   CLEAR     39  21  48 S10       30.02F WCI  32
$$

IAZ047>049-059>061-072>074-084-252300-
   CENTRAL IOWA

CITY           SKY/WX    TMP DP  RH WIND       PRES   REMARKS
AMES           CLEAR     32  11  41 S9        30.05F WCI  24
ANKENY *       CLEAR     34   9  35 S7        30.06F WCI  28
CHARITON *     CLEAR     36  12  38 S7        30.07S WCI  30
DES MOINES     PTCLDY    36   8  31 S7        30.06F WCI  30
GRINNELL*      CLEAR     32  16  51 CALM      30.09S
KNOXVILLE *    CLEAR     36   9  32 S5        30.07S WCI  32
MARSHALLTOWN   CLEAR     29  18  63 S3        30.07F
PELLA *        CLEAR     36  14  41 S6        30.10F WCI  31
PERRY *          N/A     36  18  48 S8        30.03F WCI  29
$$

IAZ004>006-015-016-023>025-035-036-252300-
   NORTH CENTRAL IOWA

CITY           SKY/WX    TMP DP  RH WIND       PRES   REMARKS
ALGONA *       CLEAR     32  12  43 S10       30.00F WCI  24
CLARION *      CLEAR     32  12  43 S8        30.03S WCI  25
ESTHERVILLE    PTCLDY    31  10  41 S14       29.96F WCI  21
FORT DODGE *   CLEAR     32  10  40 S7        30.02F WCI  26
MASON CITY     CLEAR     27  15  61 SE9       30.05S WCI  18
FOREST CITY *  MOCLDY    30  18  59 S8        30.02S WCI  23
IOWA FALLS *     N/A     28  18  64 SE7       30.06S WCI  21
$$

IAZ007>011-017>019-026>030-037>042-050>054-066-252300-
   NORTHEAST IOWA

CITY           SKY/WX    TMP DP  RH WIND       PRES   REMARKS
CEDAR RAPIDS   CLEAR     28  20  71 CALM      30.10F
CHARLES CITY * CLEAR     21  14  73 SE7       30.07F WCI  13
CLINTON *      CLEAR     21  16  79 SW6       30.17F WCI  14
DECORAH *      CLEAR     21  12  68 SW3       30.07R
DUBUQUE        CLEAR     22  16  78 SW6       30.11R WCI  14
MONTICELLO *   CLEAR     25  18  74 CALM      30.12S
OELWEIN *      CLEAR     23  14  68 SW3       30.09S
WATERLOO       CLEAR     22  15  75 S3        30.09F
$$

IAZ064-065-067-068-078-252300-
   EAST CENTRAL IOWA

CITY           SKY/WX    TMP DP  RH WIND       PRES   REMARKS
DAVENPORT      CLEAR     23  16  74 W7        30.15R WCI  15
IOWA CITY      CLEAR     29  22  75 S5        30.14S WCI  24
MT. PLEASANT * CLEAR     28  21  74 S3        30.14F
MUSCATINE *    CLEAR     28  19  69 CALM      30.16F
QUAD CITIES    CLEAR     25  17  72 SW7       30.15S WCI  17
$$

IAZ062-063-075>077-085>089-095>099-252300-
   SOUTHEAST IOWA

CITY           SKY/WX    TMP DP  RH WIND       PRES   REMARKS
BURLINGTON     CLEAR     30  21  69 NW3       30.14S
FAIRFIELD *    CLEAR     32  19  59 S3        30.12S
FORT MADISON * CLEAR     34  25  69 W3        30.14F
KEOKUK *       CLEAR     34  23  64 W5        30.13F WCI  30
OSKALOOSA *      N/A     32  16  51 CALM      30.10F
CENTERVILLE *  CLEAR     34  16  47 S6        30.10F WCI  29
OTTUMWA        CLEAR     34  15  46 S5        30.10S WCI  30
WASHINGTON *   CLEAR     30  23  74 CALM      30.13S
$$

ABBREVIATIONS USED IN REMARKS
   TC - TEMPERATURES IN CELSIUS
  WCI - WIND CHILL INDEX
   HX - HEAT INDEX
  VSB - VISIBILITY
$$




USA.gov is the U.S. government's official web portal to all federal, state and local government web resources and services.